星链-30846 (STARLINK-30846 )

导读

STARLINK-30846是美国太空探索技术公司(SpaceX)星链(Starlink)星座中的低轨通信卫星,于2023年11月3日由美国发射升空,属于星链星座组网部署的组成部分。 该卫星运行在近地轨道,依托星链标准化设计,具备空间碎片自动规避能力,核心任务是为全球提供高速低延迟宽带互联网接入服务,助力提升偏远地区网络覆盖,推动星链全球互联网络的构建。

基本信息
目录编号:
58210
目录名称:
STARLINK-30846
国际标识:
2023-170E
轨道中心:
EARTH
卫星名称:
星链-30846
卫星全名:
星链-30846 (STARLINK-30846 )
卫星状态:
在轨 (已飞行1036 天)
发射日期:
2023-11-03 UTC
国别 :
美国 (US)
星等 :
--
轨道信息
数据来源 国际轨道数据
星历时间: 2026-09-03T16:13:50+0800
22小时前
查看轨道信息
半长轴: 6861.161km
偏心率: 0.0001401
轨道倾角: 43.003°
近地点辐角 275.145°
升交点赤经 271.413°
平近点角 84.924°
近地点: 482.062km
远地点: 483.986km
周期: 94.266分钟
每日圈数: 15.275884
详细信息
固有亮度:
5
最大亮度:
0.3
卫星平台:
Starlink v2.0 mini
覆盖范围:
全球
运营商:
太空探索技术公司
运营商所在国:
美国
制造商(研发单位):
太空探索技术公司
制造商所在国:
美国
使用方式:
暂无
卫星简介
星链(Starlink)计划是由太空探索技术公司(SpaceX)提出的一个巨型低轨卫星互联网星座项目,计划在2019年至2024年间在太空搭建由约1.2万颗卫星组成的“星链”网络,其中1584颗将部署在地球上空550千米处的近地轨道,并从2020年开始工作。该卫星仍在工作。
2D轨道图
3D轨道图
轨道高度分析图
轨道倾角分析图
轨道综合分析图
查看轨道综合分析图
交会数据列表
事件ID 空间交会对象 最接近时刻(TCA) 交会距离 交会风险概率(CRP) 交会风险指数(CRI) 操作
CDM_260904-011605-821006-256721
2026-09-04T
01:16:30+0000
0.295 km
中距离
3.948052E-4 高风险 0.87
CDM_260901-061605-486905-821021
2026-09-01T
06:16:58+0000
0.938 km
远距离
1.824818E-5 中风险 0.6
CDM_260904-130205-821006-256721
2026-09-04T
13:02:39+0000
0.997 km
远距离
1.754219E-5 中风险 0.6
CDM_260901-044205-486905-821021
2026-09-01T
04:42:49+0000
1.410 km
极远距离
4.541278E-6 低风险 0.48
CDM_260831-041605-821006-409222
OBJECT F (64092)
2026-08-31T
04:16:47+0000
1.606 km
极远距离
3.51013E-6 低风险 0.46
CDM_260903-234205-821006-256721
2026-09-03T
23:42:21+0000
1.817 km
极远距离
2.469008E-6 低风险 0.43
CDM_260904-143605-821006-256721
2026-09-04T
14:36:48+0000
1.991 km
极远距离
1.94631E-6 低风险 0.41
CDM_260904-025005-821006-256722
2026-09-04T
02:50:39+0000
2.370 km
极远距离
1.33061E-6 低风险 0.37